Tracking 23757 objects as of 26-Oct-2021
HD Live streaming from Space Station
objects crossing your sky now

SAUDISAT 3

Track SAUDISAT 3 now!
10-day predictions
SAUDISAT 3 is classified as:


NORAD ID: 31118
Int'l Code: 2007-012B
Perigee: 660.7 km
Apogee: 680.7 km
Inclination: 97.9 °
Period: 98.0 minutes
Semi major axis: 7041 km
RCS: 0.633 m2 (medium)
Launch date: April 17, 2007
Source: Saudi Arabia (SAUD)
Launch site: TYURATAM MISSILE AND SPACE COMPLEX (TTMTR)
aabbcc
Your satellite tracking list
Your tracking list is empty




NASA's NSSDC Master Catalog

Two Line Element Set (TLE):
1 31118U 07012B   21298.42183516  .00000071  00000-0  20153-4 0  9999
2 31118  97.9368 246.6025 0014182 220.7889 139.2256 14.69224999778640
Source of the keplerian elements: AFSPC